This demonstration page uses our WeatherBlox Daily Observations layout. Learn more.

Left ArrowRight Arrow

39.12711, -84.51439

Hourly Observations for September 2, 2016

Temp ( °F °C ) Dew Point ( °F °C ) Humidity (%) Winds ( mph kmh ) Pressure ( in mb ) Visibility ( mi km ) Precip ( " mm )
12:53 am 00:53 Clear 62 16.7 59 15 90 90 NE 7 11 30.10 1019 10 16 0.00 0.00
1:53 am 01:53 Clear 62 16.7 58 14.4 86 86 NE 7 11 30.10 1019 10 16 0.00 0.00
2:53 am 02:53 Clear 62 16.7 58 14.4 86 86 NNE 8 13 30.11 1020 10 16 0.00 0.00
3:53 am 03:53 Clear 61 16.1 57 13.9 87 87 NNE 8 13 30.11 1020 10 16 0.00 0.00
4:53 am 04:53 Clear 60 15.6 57 13.9 90 90 NNE 5 7 30.13 1020 10 16 0.00 0.00
5:53 am 05:53 Clear 59 15 58 14.4 96 96 NE 7 11 30.14 1021 10 16 0.00 0.00
6:53 am 06:53 Clear 59 15 58 14.4 96 96 NE 7 11 30.14 1021 10 16 0.00 0.00
7:53 am 07:53 Sunny 60 15.6 59 15 96 96 NE 6 9 30.15 1021 10 16 0.00 0.00
8:53 am 08:53 Sunny 64 17.8 60 15.6 87 87 NE 7 11 30.15 1021 10 16 0.00 0.00
9:53 am 09:53 Sunny 68 20 61 16.1 78 78 NE 9 15 30.15 1021 10 16 0.00 0.00
10:53 am 10:53 Mostly Sunny 71 21.7 61 16.1 71 71 ENE 13 20 30.15 1021 10 16 0.00 0.00
11:53 am 11:53 Mostly Sunny 75 23.9 60 15.6 60 60 NE 13 20 30.15 1021 10 16 0.00 0.00
12:53 pm 12:53 Mostly Sunny 76 24.4 58 14.4 54 54 ENE 15 24 30.14 1021 10 16 0.00 0.00
1:53 pm 13:53 Mostly Cloudy 77 25 58 14.4 52 52 ENE 14 22 30.13 1020 10 16 0.00 0.00
1:56 pm 13:56 Mostly Cloudy 77 25 57 14 51 51 ENE 14 22 30.12 1020 10 16 0.00 0.00
2:53 pm 14:53 Partly Cloudy 77 25 58 14.4 52 52 NE 15 24 30.12 1020 10 16 0.00 0.00
3:53 pm 15:53 Partly Cloudy 78 25.6 57 13.9 48 48 ENE 15 24 30.10 1019 10 16 0.00 0.00
4:53 pm 16:53 Partly Cloudy 77 25 57 13.9 50 50 NE 14 22 30.09 1019 10 16 0.00 0.00
5:53 pm 17:53 Mostly Sunny 77 25 58 14.4 52 52 ENE 12 19 30.09 1019 10 16 0.00 0.00
6:53 pm 18:53 Partly Cloudy 76 24.4 57 13.9 52 52 ENE 12 19 30.08 1019 10 16 0.00 0.00
7:53 pm 19:53 Sunny 71 21.7 58 14.4 63 63 NE 6 9 30.08 1019 10 16 0.00 0.00
8:53 pm 20:53 Clear 66 18.9 60 15.6 81 81 NE 3 6 30.10 1019 10 16 0.00 0.00
9:53 pm 21:53 Clear 63 17.2 61 16.1 93 93 Calm 30.11 1020 10 16 0.00 0.00
10:53 pm 22:53 Clear 64 17.8 59 15 84 84 NE 7 11 30.12 1020 10 16 0.00 0.00
11:53 pm 23:53 Clear 64 17.8 60 15.6 87 87 NE 9 15 30.13 1020 10 16 0.00 0.00

Powered by AerisWeather